Flag for U.S.A. Weather past 2 weeks in Juneau, Alaska, U.S.A.

Now
61 °F

Passing clouds.


Feels Like: 61 °F
Forecast: 49 / 69 °F
Wind: 9 mph from Southwest

Location: Juneau International Airport

Current Time: Jul 4, 2015 at 11:39:34 AM

Latest Report: Jul 4, 2015 at 10:53 AM


Visibility: 10 mi

Pressure: 30.26 "Hg

Humidity: 70%

Dew point: 51 °F

Location of JuneauLocation

Historic Weather in Juneau — Graph

°F

Juneau temperature yesterday

Maximum temperature yesterday: 57 °F (at 3:53 PM)
Minimum temperature yesterday: 50 °F (at 11:53 PM)
Average temperature yesterday: 54 °F

Past Weeks' High & Low Weather Summary

 TemperatureHumidityPressure
High75 °F (Jun 23, 4:53 PM)100% (Jun 27, 2:53 AM)30.31 "Hg (Jun 27, 2:53 AM)
Low45 °F (Jul 4, 3:53 AM)40% (Jun 23, 4:53 PM)29.86 "Hg (Jun 25, 2:53 PM)
Average59 °F77%30.08 "Hg
* Reported Jun 19 9:53 AM — Jul 4 9:53 AM, Juneau, Weather by CustomWeather, © 2015

Note: Actual official high and low records may vary slightly from our data, if they occured in-between our weather recording intervals... More about our weather records

Advertising

Juneau weather history for previous 24 hours

 ConditionsComfort  
Time TempWeatherWind HumidityBarometerVisibility
9:53 AM
Sat, Jul 4
60 °FPassing clouds.7 mph75%30.27 "Hg10 mi
8:53 AM57 °FPassing clouds.No wind78%30.28 "Hg10 mi
7:53 AM54 °FPassing clouds.No wind83%30.28 "Hg10 mi
6:53 AM50 °FSunny.No wind93%30.28 "Hg10 mi
5:53 AM47 °FScattered clouds.No wind97%30.28 "Hg10 mi
4:53 AM47 °FPassing clouds.No wind93%30.27 "Hg10 mi
3:53 AM45 °FPassing clouds.6 mph93%30.27 "Hg10 mi
2:53 AM46 °FPassing clouds.No wind96%30.27 "Hg10 mi
1:53 AM48 °FLow clouds.No wind96%30.27 "Hg10 mi
12:53 AM49 °FPassing clouds.No wind97%30.26 "Hg10 mi
11:53 PM
Fri, Jul 3
50 °FPassing clouds.No wind93%30.26 "Hg10 mi
10:53 PM51 °FScattered clouds.No wind96%30.25 "Hg10 mi
9:53 PM55 °FScattered clouds.3 mph90%30.24 "Hg10 mi
8:53 PM56 °FPartly sunny.6 mph81%30.24 "Hg10 mi
7:53 PM57 °FPartly sunny.3 mph81%30.24 "Hg10 mi
6:53 PM57 °FBroken clouds.6 mph81%30.25 "Hg10 mi
5:53 PM57 °FOvercast.8 mph81%30.25 "Hg10 mi
4:53 PM57 °FBroken clouds.8 mph78%30.25 "Hg10 mi
3:53 PM57 °FMore clouds than sun.9 mph81%30.26 "Hg10 mi
2:53 PM56 °FLow clouds.8 mph81%30.26 "Hg10 mi
1:53 PM55 °FMore clouds than sun.6 mph83%30.26 "Hg10 mi
12:53 PM55 °FMostly cloudy.6 mph83%30.26 "Hg10 mi
11:53 AM55 °FMostly cloudy.7 mph87%30.26 "Hg10 mi
Weather by CustomWeather, © 2015

See weather overviewHow to use our weather pages